Theta_e
324 326 327 328 329 330 330 331 331 331 330 329 328 328 328 327 326 324 322 321 320 319 320 318 318 319 318 318 317 317 315 315 310 311 305 298 300 299 297 298 297 297 297
322 324 325 326 327 327 328 329 330 329 329 329 328 327 326 325 324 323 322 320 319 318 318 318 317 318 319 318 318 316 315 314 311 308 300 299 297 296 295 294 293 294 295
318 321 323 324 324 325 326 327 327 327 327 327 326 324 323 323 322 322 321 318 318 316 315 315 314 313 311 311 312 310 310 307 305 302 301 294 293 292 288 289 289 290 291
316 318 320 321 322 323 324 324 324 325 324 323 323 322 321 318 315 311 310 311 309 309 307 306 307 306 306 306 305 304 304 302 300 297 292 292 291 287 287 286 286 286 286
313 315 317 319 321 321 321 321 321 320 318 317 316 315 314 313 309 306 305 306 304 303 302 302 302 297 292 298 300 302 302 298 293 291 289 289 288 286 286 286 285 285 285
310 312 315 317 317 317 318 316 312 310 311 308 306 305 304 299 295 297 300 301 300 299 298 299 298 290 292 294 295 295 296 296 290 289 288 288 289 287 286 286 285 283 283
307 309 311 313 310 308 304 302 301 303 303 301 301 301 299 298 294 295 294 299 299 299 297 294 293 294 291 292 293 293 291 293 294 293 288 289 288 289 287 285 285 284 284
303 304 301 300 300 299 299 298 298 299 298 297 297 298 297 295 294 294 292 297 297 296 293 292 292 290 290 290 290 288 288 288 289 290 291 291 292 290 289 287 286 284 283
299 298 297 297 296 296 295 296 297 295 295 294 293 293 292 290 292 293 293 291 290 290 290 290 291 290 290 292 288 286 286 286 290 291 291 291 291 291 289 286 284 284 284
297 297 297 297 295 295 295 294 293 293 291 290 289 290 289 289 292 292 292 289 287 287 287 287 287 289 291 291 287 286 286 285 285 285 285 287 288 288 289 287 286 285 285
295 294 294 294 294 295 294 292 291 289 289 288 288 288 288 288 290 293 292 289 289 288 287 286 287 291 291 290 289 286 286 285 285 284 285 284 285 285 284 284 284 284 284
294 294 293 292 291 291 290 289 288 288 288 287 287 286 287 287 288 292 291 291 291 287 287 287 288 290 290 290 288 289 288 286 285 285 284 283 283 285 284 283 282 283 283
291 290 290 289 289 289 289 288 288 288 288 287 287 286 285 286 288 291 291 291 289 287 287 288 290 290 290 289 288 287 285 285 284 283 282 283 284 285 284 283 282 284 284
290 289 288 289 288 288 289 289 289 289 289 288 287 287 286 286 287 288 287 287 287 288 288 287 287 287 287 286 285 284 284 284 284 283 283 284 285 285 284 285 283 283 282
290 289 288 289 288 288 289 290 290 291 291 289 288 288 286 285 287 288 286 286 287 287 286 285 284 284 284 283 284 284 284 284 283 283 282 282 282 283 283 283 282 282 280
289 288 289 289 289 289 289 288 291 291 291 291 291 289 287 290 289 288 287 288 288 288 285 284 283 283 282 282 283 283 284 283 283 283 283 282 282 281 281 282 282 281 279
290 289 289 289 289 289 288 288 286 287 289 290 289 289 289 288 289 289 288 288 288 287 284 284 283 283 283 283 283 283 282 283 283 283 283 281 281 281 281 280 280 279 279
289 288 289 289 289 289 288 288 288 285 284 284 288 288 289 289 288 289 288 287 284 285 283 283 283 283 283 283 283 283 283 282 282 281 280 280 280 279 278 278 277 277 276
289 289 289 290 290 289 289 288 287 287 286 285 285 287 287 289 289 288 288 284 283 283 284 284 284 284 283 283 281 281 280 279 278 278 277 277 276 276 275 275 275 274 274
288 288 289 289 288 288 288 287 286 285 285 284 284 285 286 286 285 285 285 285 285 284 284 282 282 281 280 278 277 274 274 272 271 270 269 269 269 269 268 267 267 267 267
288 287 287 287 286 287 286 286 285 285 284 284 285 286 287 285 285 285 285 284 284 283 280 278 276 274 274 272 272 271 272 270 267 266 266 265 264 264 265 266 265 264 263
286 286 286 286 286 285 285 285 284 283 283 283 284 285 287 286 285 284 283 281 279 277 276 274 272 271 271 271 272 270 269 268 266 263 263 262 262 263 263 262 261 262 261
284 284 285 285 284 283 282 283 282 282 282 283 282 284 284 280 279 278 275 271 269 268 270 271 268 266 265 266 268 268 267 265 263 261 261 261 261 262 260 259 259 258 258
282 282 281 281 282 282 283 282 282 280 280 280 280 278 278 276 274 271 269 267 267 266 267 267 267 265 264 264 264 264 263 262 260 259 259 259 259 259 258 257 257 257 257
278 279 280 281 281 280 277 277 276 275 276 275 274 273 271 271 269 267 266 266 266 265 265 265 264 263 262 263 263 263 262 264 259 260 258 258 257 256 255 255 255 255 255
273 273 273 274 274 275 274 273 272 272 272 271 271 269 269 268 267 266 265 265 265 265 264 264 263 263 263 262 262 262 261 263 260 260 260 260 258 256 255 254 254 254 255
Wind_Speed
18 18 18 17 18 17 16 15 14 13 13 13 12 12 12 12 12 11 8 7 9 10 6 6 7 6 5 5 3 4 6 6 8 3 2 2 2 3 1 1 3 4 5
16 17 17 17 17 17 16 15 14 14 13 13 13 12 11 12 11 11 11 8 11 8 8 7 8 6 7 4 4 6 5 5 3 9 1 1 2 2 2 3 2 3 3
15 16 16 17 17 17 16 15 14 14 13 12 11 12 13 12 12 11 10 6 5 2 2 1 3 3 2 1 1 1 1 0 1 2 3 1 0 1 3 2 2 3 3
14 16 17 17 18 16 15 14 14 13 12 11 11 12 11 7 5 6 6 5 4 3 3 2 2 3 4 4 3 4 4 3 2 2 2 2 1 1 2 0 1 0 1
12 15 18 16 15 14 14 13 11 11 10 11 10 8 7 7 5 7 6 6 6 4 4 3 3 4 5 5 3 4 4 3 2 3 1 1 1 0 2 2 3 1 1
12 14 13 14 14 14 11 11 10 10 10 8 8 8 9 5 11 9 9 7 6 7 7 5 3 4 4 5 4 3 1 2 2 2 2 3 2 2 2 2 1 0 2
13 13 13 12 11 10 10 10 10 11 10 9 9 9 8 7 12 11 9 5 6 6 7 5 4 3 4 5 5 7 7 6 3 2 2 3 2 3 3 3 2 2 1
10 8 7 6 9 9 11 12 11 9 10 10 8 8 8 7 12 11 8 5 4 3 4 5 4 5 4 6 5 5 5 4 3 2 1 0 1 1 1 1 2 3 1
12 10 9 10 11 11 12 11 9 9 8 8 7 9 10 8 13 12 9 5 6 5 4 3 4 5 7 10 7 6 4 2 5 10 11 10 10 8 5 3 2 2 1
13 14 14 14 14 14 13 12 9 9 9 7 8 9 8 9 12 13 9 5 6 4 3 4 4 5 9 9 6 6 5 3 4 4 5 8 7 6 5 3 3 1 2
10 9 11 12 13 12 11 8 11 9 9 9 8 6 6 8 9 14 15 8 6 6 5 4 2 9 10 9 8 5 3 7 7 6 5 5 4 3 1 2 3 2 2
12 14 13 11 9 9 12 10 10 10 10 9 9 6 4 5 8 12 14 10 12 7 6 4 4 10 9 10 7 11 13 9 6 5 5 4 4 3 2 2 2 1 1
10 12 13 12 10 11 12 12 10 10 10 10 9 8 7 5 6 13 13 13 13 7 5 8 13 13 14 12 13 10 6 5 4 4 4 3 3 2 1 0 1 0 2
13 13 12 14 14 12 9 10 9 10 10 10 10 9 8 7 7 8 6 8 12 9 15 9 9 11 11 7 5 6 4 4 4 4 4 2 2 1 2 3 3 4 3
12 11 12 11 13 12 11 12 12 11 12 13 11 11 13 11 10 13 13 9 9 10 11 7 6 6 5 5 4 4 4 3 4 3 4 2 1 1 2 2 2 3 3
13 11 12 12 11 11 11 8 7 9 12 11 13 12 7 11 19 20 20 18 18 21 7 7 6 6 5 6 5 4 4 4 3 3 2 1 0 1 1 3 3 0 2
16 14 12 14 14 14 12 12 13 8 14 16 18 17 16 18 22 21 22 23 22 17 6 7 7 6 6 5 4 4 3 3 2 2 2 2 1 1 2 1 1 2 3
11 13 12 12 13 14 14 13 10 12 11 8 15 15 18 23 23 23 25 21 13 8 7 9 9 7 7 6 5 5 4 4 4 3 2 2 2 2 2 3 3 4 5
10 10 10 10 10 12 13 12 12 12 12 8 9 11 17 23 22 24 26 9 11 10 10 9 8 7 6 6 5 5 6 5 4 4 3 3 2 1 1 2 3 5 5
8 11 12 10 11 11 12 12 12 12 13 10 10 10 12 14 13 14 11 9 9 8 7 7 6 6 6 6 5 4 4 3 3 3 2 2 2 2 2 2 1 2 2
6 8 12 10 12 11 10 12 12 13 13 11 10 11 20 13 12 12 10 9 9 8 8 8 7 6 5 4 5 4 4 4 3 3 3 3 2 2 2 2 2 1 1
6 8 8 9 9 11 10 10 11 14 13 12 9 11 24 9 9 9 9 8 8 7 6 7 6 6 5 5 5 5 5 4 4 3 3 3 1 2 1 1 0 1 2
5 7 7 6 7 10 10 9 10 11 13 11 11 12 12 8 8 7 7 8 7 6 5 6 7 6 4 4 3 3 5 4 4 3 3 3 2 1 1 1 1 1 2
4 5 7 7 8 9 9 9 9 10 12 11 10 9 8 8 7 8 8 7 7 7 5 5 6 8 6 5 4 4 4 4 3 3 4 3 3 3 2 2 1 1 1
4 3 4 6 8 8 8 8 9 10 11 10 9 8 7 7 7 8 8 7 7 7 7 6 5 7 8 8 7 7 7 7 4 4 3 3 3 3 3 2 1 1 1
6 5 4 4 4 6 7 8 8 9 10 9 9 8 8 8 7 8 8 8 7 6 7 5 6 8 9 6 7 7 7 7 6 6 4 4 4 3 3 4 4 2 3
Wind_Direction
212 214 212 211 211 211 211 213 209 207 207 205 206 208 208 206 211 215 203 204 215 230 212 214 233 228 240 239 225 233 246 255 269 294 54 24 348 324 289 335 292 276 267
215 212 211 212 208 207 209 208 204 206 204 204 205 206 204 208 211 209 209 205 222 219 215 211 225 228 232 219 220 234 246 244 255 283 131 174 222 24 348 352 318 284 277
215 212 208 208 208 204 202 202 201 199 201 202 200 200 206 208 207 214 219 197 199 170 124 78 55 53 56 61 253 31 245 161 7 304 301 90 283 24 20 16 348 340 335
206 210 207 205 204 201 197 196 194 193 193 187 192 199 199 181 160 143 148 175 166 167 129 104 140 140 190 203 179 213 244 246 212 226 233 244 221 82 120 359 330 218 248
215 212 205 205 204 198 192 189 181 180 176 175 175 176 162 176 169 159 155 173 181 185 167 183 201 182 194 203 187 207 207 192 172 194 200 226 243 230 178 177 190 192 287
214 218 214 197 196 190 178 170 164 168 171 157 163 162 163 138 149 160 158 175 171 200 201 180 190 175 198 195 184 162 153 211 180 156 164 192 216 207 182 206 127 228 315
216 216 215 194 181 170 154 156 162 165 157 163 163 157 156 147 165 166 174 163 163 193 187 167 179 163 171 160 146 112 88 79 67 150 149 210 213 208 167 167 151 158 217
207 206 178 177 168 164 164 161 157 160 162 161 157 156 146 151 163 166 161 151 147 167 167 160 161 165 164 154 149 139 134 128 105 109 147 3 324 357 141 107 117 95 68
204 192 178 176 178 171 169 169 162 150 152 162 156 153 151 152 165 162 157 143 138 161 143 150 168 179 171 163 144 133 119 106 78 84 69 74 79 86 115 112 110 138 123
210 198 189 184 175 182 172 164 163 161 159 149 154 164 155 157 170 167 157 141 135 148 151 145 194 190 162 155 139 145 139 95 89 88 72 68 76 71 65 87 153 150 159
198 185 180 187 182 171 157 150 154 154 150 155 151 151 152 161 171 170 164 157 165 159 166 157 180 154 143 144 134 117 132 134 113 104 99 95 100 106 63 47 46 115 143
186 187 186 171 161 153 152 146 149 153 153 153 153 147 148 155 167 166 172 164 160 159 157 144 146 136 126 128 128 126 125 120 117 114 120 121 121 104 76 53 59 60 45
176 186 173 156 154 156 157 156 155 162 164 166 164 164 160 163 168 162 163 161 151 144 145 147 137 125 114 105 109 106 105 117 120 123 129 127 114 77 52 19 261 4 348
189 184 170 167 161 157 156 163 167 174 173 169 170 172 159 171 168 155 149 149 144 137 129 126 131 120 117 112 102 100 96 114 123 125 120 111 111 76 1 12 12 8 343
190 178 173 171 174 166 176 176 178 187 186 173 179 169 169 181 183 161 157 157 156 142 128 130 130 134 134 124 116 109 115 126 116 127 131 154 147 43 13 8 4 348 325
185 178 176 171 171 169 165 152 156 153 164 161 160 164 169 156 160 163 161 160 152 145 137 150 149 143 145 154 150 137 139 138 139 146 146 134 81 37 26 353 343 216 296
197 182 177 171 169 170 171 170 159 144 144 149 159 160 167 155 163 164 159 159 155 149 151 158 154 158 147 143 137 142 147 122 114 124 97 102 83 5 345 19 344 327 325
190 186 182 181 174 170 171 165 164 160 149 167 161 162 166 159 161 159 155 149 159 161 169 170 164 155 149 143 149 149 148 143 137 127 130 78 65 39 339 348 333 327 321
176 175 181 174 175 170 160 158 159 153 143 153 139 162 162 159 158 159 163 166 165 165 169 163 153 145 140 128 121 146 151 140 131 141 143 138 135 115 9 336 331 322 315
176 177 175 169 162 168 162 161 156 153 138 163 167 169 157 154 167 173 175 168 162 155 152 135 124 120 134 142 136 122 124 125 119 117 106 88 60 42 57 46 23 4 335
170 170 174 163 164 163 174 164 163 159 140 173 168 175 168 171 171 181 172 165 153 146 137 140 138 129 121 119 126 126 119 125 115 116 104 89 78 77 52 25 21 344 309
143 163 177 169 162 154 175 163 175 139 157 155 162 166 171 177 177 174 160 136 119 118 126 131 127 126 132 141 142 137 135 126 130 127 110 119 114 99 101 76 359 341 343
165 146 153 159 152 153 156 163 158 166 148 152 159 158 166 161 158 155 130 111 110 112 109 118 119 118 109 103 93 109 135 135 128 120 135 133 143 135 113 64 49 360 22
105 151 140 149 149 157 157 161 151 150 144 152 147 145 151 148 142 129 116 117 119 117 114 114 124 137 136 131 124 120 103 107 115 140 133 135 152 150 170 143 198 179 222
57 96 155 164 156 145 128 134 139 141 141 142 134 133 126 128 131 121 119 125 124 125 125 128 132 139 144 143 144 138 139 143 143 149 142 156 169 162 169 172 172 223 233
18 45 55 57 92 125 135 140 141 139 135 131 130 126 133 136 134 128 131 130 130 131 139 147 149 146 151 153 152 150 156 168 176 193 180 171 173 182 169 184 193 190 231